Погода в Невельской

Россия / Иркутская область     56°07′03″N   98°32′02″E
темп.,
°C
ветер,
м/с
пор.,
м/с
влажн.,
%
обл.,
%
осадки,
мм/ч
давл.,
гПа
погр.,
м
25 февраля, чт
чт2523:00−22в279679 0.0 1029165
02:00−20в3109489 0.0 1027269
05:00−20вюв4119298 0.0 1023383
08:00−19вюв5129299 0.0 1020477
11:00−16вюв51289100 0.3 1018521
14:00−12вюв5988100 0.4 1013496
17:00−11всв1395100 1.6 1013256
20:00−12зсз3796100 2.9 1017410
26 февраля, пт
пт2623:00−15зсз2597100 0.2 1019135
02:00−14зсз41091100 0.3 1023674
05:00−20зсз2794100 0.0 1025212
08:00−20юз2494100 0.0 1028112
11:00−17зюз4976100 0.0 1028870
14:00−15з4765100 0.0 10261694
17:00−15зюз387273 0.0 10261702
20:00−19зсз6127885 0.4 10291009
27 февраля, сб
сб2723:00−23зюз31287100 0.0 1032684
02:00−23зюз31190100 0.0 1034700
05:00−23зюз31192100 0.0 1034597
08:00−22зюз41095100 0.1 10351099
11:00−21з51187100 0.1 10351552
14:00−20з51084100 0.2 10351539
17:00−19з41083100 0.1 10351470
20:00−22з1196100 0.1 103620
28 февраля, вс
вс2823:00−22юз2299100 0.1 103772
02:00−22юз2598100 0.2 1037143
05:00−22юз2798100 0.1 1038264
08:00−22зюз3995100 0.2 1039666
11:00−21з4889100 0.1 1040967
14:00−19з4884100 0.1 10401180
17:00−19з4785100 0.1 10401143
20:00−21з1298100 0.1 104050
1 марта, пн
пн123:00−21юз1299100 0.1 104048
02:00−22юз1299100 0.2 104022
05:00−25юз1110097 0.0 103920
08:00−26ю119991 0.1 103819
11:00−19ююв129110 0.0 1035229
14:00−14юв227925 0.0 1032521
17:00−13вюв248054 0.0 1029586
20:00−18в369363 0.0 1027109